Kontakt Přihlásit se pomocí účtu: FaceBook Google                                      Nová registrace|Zapomenuté heslo

Hodnocení her

Podle abecedy: |0-9|A|B|C|D|E|F|G|H|I|J|K|L|M|N|O|P|Q|R|S|T|U|V|W|X|Y|Z|
ADVENTURY
AKČNÍ
ARKÁDA
BOJOVÁ
DĚTSKÁ
FPS
LOGICKÁ
MMO
MMORPG
OSTATNÍ
PLOŠINOVKA
RPG
SIMULACE
SPORT
ZÁVODNÍ
STRATEGIE REALTIME
STRATEGIE TAHOVÁ
THIRD PERSON AKCE
Staré hry
Flash hry
Novinky v herních magazínech
Češtiny
Návody
STATISTIKY serveru hh.cz
Kalendář her
FORUM

Seznam her PS2 > Vše

Seřadit výpis podle: Hodnocení | Názvu | Data vydání

1. PS2 2010-01-19 > Silent Hill: Shattered Memories (PS2) 50.00 %
2. PS2 2009-11-03 > Jak and Daxter: Lost Frontier (PS2) 66.00 %
3. PS2 2009-10-14 > MotorStorm: Arctic Edge (PS2) 70.00 %
4. PS2 2009-06-30 > Harry Potter a Princ dvojí krve (the Half-Blood Prince) (PS2) 60.00 %
5. PS2 2009-06-19 > Wipeout Pulse (PS2) 80.00 %
6. PS2 2009-06-09 > Indiana Jones and the Staff of Kings (PS2) 60.00 %
7. PS2 2009-05-26 > Secret Agent Clank (PS2) 69.50 %
8. PS2 2008-12-02 > Kingdom Hearts Re: Chains of Memories 75.00 %
9. PS2 2008-11-12 > EyeToy Play: Hero 70.00 %
10. PS2 2008-11-12 > EyeToy Play: PomPom Party 60.00 %
11. PS2 2008-11-11 > Family Game Night (PS2) 65.00 %
12. PS2 2008-11-07 > Singstar Singalong with Disney 00.00 %
13. PS2 2008-10-27 > Guitar Hero: World Tour (PS2) 80.00 %
14. PS2 2008-10-24 > Buzz! Junior: Ace Racers 50.00 %
15. PS2 2008-10-21 > Spider-Man: Web of Shadows Amazing Allies Edition (PS2) 30.00 %
16. PS2 2008-10-21 > Monopoly (PS2) 50.00 %
17. PS2 2008-10-17 > Singstar Boy Bands vs Girl Bands 50.00 %
18. PS2 2008-10-07 > Crash Bandicoot: Mind over Mutant (PS2) 60.00 %
19. PS2 2008-10-02 > FIFA 2009 (PS2) 80.00 %
20. PS2 2008-09-25 > Singstar Hottest Hits 00.00 %
21. PS2 2008-09-23 > LEGO Batman: The Videogame (PS2) 75.00 %
22. PS2 2008-09-09 > Yakuza 2 71.67 %
23. PS2 2008-07-10 > Shin Megami Tensei: Persona 4 90.00 %
24. PS2 2008-06-27 > Guitar Hero: Aerosmith (PS2) 65.00 %
25. PS2 2008-04-25 > Singstar: Summer Party 62.50 %
26. PS2 2008-03-26 > ATV Offroad Fury 4 70.00 %
27. PS2 2008-03-12 > Buzz! The Pop Quiz! 75.00 %
28. PS2 2008-03-11 > Ratchet and Clank: Size Matters (PS2) 60.00 %
29. PS2 2008-03-04 > Silent Hill Origins (PS2) 62.75 %
30. PS2 2008-02-22 > Buzz! Junior: Dino Den 65.00 %
31. PS2 2007-11-23 > Guitar Hero 3: Legends of Rock (PS2) 80.00 %
32. PS2 2007-11-07 > Eye Toy Play: Astro Zoo 62.33 %
33. PS2 2007-11-02 > Buzz! Junior: Monster Rumble 71.67 %
34. PS2 2007-11-01 > The Simpsons Game (PS2) 69.00 %
35. PS2 2007-10-31 > Manhunt 2 (PS2) 60.00 %
36. PS2 2007-10-26 > Singstar RnB 00.00 %
37. PS2 2007-10-26 > MotoGP 07 (PS2) 65.00 %
38. PS2 2007-10-25 > The Sims 2: Castaway (Trosečníci) (PS2) 70.00 %
39. PS2 2007-10-19 > Thrillville: Off the Rails (PS2) 70.00 %
40. PS2 2007-10-12 > Jackass: The Game (PS2) 70.00 %
41. PS2 2007-10-12 > Spider-Man: Friend or Foe (PS2) 68.00 %
42. PS2 2007-10-02 > NBA 08 (PS2) 00.00 %
43. PS2 2007-09-25 > FIFA 2008 (PS2) 80.00 %
44. PS2 2007-09-25 > Syphon Filter: Dark Mirror (PS2) 69.00 %
45. PS2 2007-09-21 > Warriors Orochi (PS2) 55.00 %
46. PS2 2007-09-11 > NHL 2K8 (PS2) 60.00 %
47. PS2 2007-09-07 > ObsCure 2 (PS2) 70.00 %
48. PS2 2007-09-07 > Valkyrie Profile 2: Silmeria 00.00 %
49. PS2 2007-08-30 > Tiger Woods PGA Tour 08 (PS2) 70.00 %
50. PS2 2007-08-28 > Stuntman: Ignition (PS2) 00.00 %
51. PS2 2007-08-23 > NASCAR 08 (PS2) 60.00 %
52. PS2 2007-08-14 > Shin Megami Tensei: Persona 3 90.00 %
53. PS2 2007-07-24 > Guitar Hero 2: Rocks the 80s 60.00 %
54. PS2 2007-06-26 > Harry Potter a Fénixův řád (Order of the Phoenix) (PS2) 77.00 %
55. PS2 2007-06-19 > Transformers: The Game (PS2) 60.00 %
56. PS2 2007-06-14 > Raw Danger 70.00 %
57. PS2 2007-06-12 > Fantastic 4: Rise of the Silver Surfer (PS2) 42.50 %
58. PS2 2007-06-05 > Tomb Raider: Anniversary (PS2) 85.00 %
59. PS2 2007-05-25 > Buzz! Junior: RoboJam 70.00 %
60. PS2 2007-05-22 > Dawn of Mana 00.00 %
61. PS2 2007-05-22 > Shrek the Third (PS2) 60.00 %
62. PS2 2007-05-22 > Odin Sphere 00.00 %
63. PS2 2007-05-18 > SBK-07: Superbike World Championship (PS2) 60.00 %
64. PS2 2007-04-27 > Shin Megami Tensei: Devil Summoner 76.50 %
65. PS2 2007-04-27 > Demon Chaos 50.00 %
66. PS2 2007-04-24 > The Red Star (PS2) 65.00 %
67. PS2 2007-04-13 > Everybodys Tennis 84.67 %
68. PS2 2007-04-07 > SingStar Pop hits 70.00 %
69. PS2 2007-03-28 > Metal Slug Anthology (PS2) 00.00 %
70. PS2 2007-03-27 > Medal of Honor: Vanguard (PS2) 61.00 %
71. PS2 2007-03-26 > Made Man (PS2) 70.00 %
72. PS2 2007-03-23 > Heatseeker (PS2) 00.00 %
73. PS2 2007-03-20 > UEFA Champions League 2006 - 2007 (PS2) 68.00 %
74. PS2 2007-03-20 > Teenage Mutant Ninja Turtles: Video Game (PS2) 70.00 %
75. PS2 2007-03-16 > Test Drive Unlimited (PS2) 77.50 %
76. PS2 2007-03-16 > Championship Manager 2007 (PS2) 40.00 %
77. PS2 2007-03-13 > God of War 2 95.50 %
78. PS2 2007-03-06 > Burnout Dominator (PS2) 82.50 %
79. PS2 2007-03-06 > Grand Theft Auto: Vice City Stories (PS2) 69.67 %
80. PS2 2007-03-02 > Shin Megami Tensei: Digital Devil Saga 2 81.50 %
81. PS2 2007-02-28 > Samurai Warriors 2: Empires (PS2) 65.00 %
82. PS2 2007-02-13 > Ghost Rider (PS2) 58.33 %
83. PS2 2007-02-02 > NFL Street 3 (PS2) 60.00 %
84. PS2 2007-01-30 > Rogue Galaxy 83.69 %
85. PS2 2007-01-09 > Arthur and the Minimoys (PS2) 60.00 %
86. PS2 2007-01-00 > The Fast and The Furious: Tokyo Drift (PS2) 65.00 %
87. PS2 2006-12-30 > Kaido Racer 2 40.00 %
88. PS2 2006-12-05 > Rayman Raving Rabbids (PS2) 70.00 %
89. PS2 2006-11-21 > Thrillville (PS2) 82.00 %
90. PS2 2006-11-20 > Superman Returns: The Videogame (PS2) 37.50 %
91. PS2 2006-11-17 > EyeToy: Kinetic Combat 75.00 %
92. PS2 2006-11-17 > Mercury Meltdown Remix 67.50 %
93. PS2 2006-11-14 > Capcom Classics Collection Vol. 2 (PS2) 70.00 %
94. PS2 2006-11-10 > Buzz! The Sports Quiz 62.50 %
95. PS2 2006-11-10 > Delta Force: Black Hawk Down Team Sabre (PS2) 63.50 %
96. PS2 2006-11-07 > Guitar Hero 2 87.33 %
97. PS2 2006-11-07 > Call of Duty 3 (PS2) 75.67 %
98. PS2 2006-11-07 > The Sopranos: Road to Respect (PS2) 51.67 %
99. PS2 2006-11-07 > SOCOM: U.S. Navy SEALs Combined Assault 70.80 %
100. PS2 2006-11-07 > Sega Mega Drive Collection (PS2) 75.00 %

[1] [2] [3] [4] 
Celkem 378 položek

Rychlé info

> Na našem fóru se otevřela nová místnost, v které můžete oslnit svými znalostmi videoher.

> Registrovaní návštěvníci mají nyní možnost editovat a mazat své příspěvky. Dále byl přidán dolní panel s nástroji a youtube videa se již dají otevírat ve fullscreenu. Několik změn ještě zůstává v rukávu...

> Spustili jsme pro Vás nové DISKUSNÍ FORUM

> Na Vaše podněty jsme udělali několik změn - např. oprava hrubek, odkazování na konkrétní příspěvek v diskusi a zrychlení generování stránky

> Jeden z předních českých herních serverů ukončí ke konci tohoto měsíce svůj provoz - apríl kachna

> V Japonsku jde do obchodů drink s designem Metal Gear Solid: Peace Walker

> Jeden z uživatelů fóra NeoGaf se chvástá s MotorSport 3

> Akella oznámila simulátor, jehož tématem budou somálští námořní piráti

> Příští číslo španělského magazínu Marca Player má odhalit první info o F.3.A.R

> Víkendová sleva 20-21.3 2010 na Xzone pro PC hru S.T.A.L.K.E.R - Call of Pripyat jen za 499Kč

> Vyšla demoverze české 2D adventury Kulivočko

> Omlouváme se za výpadek stránek, zapříčiněn kolapsem diskového prostoru serveru

> Logické Machinarium dostane po čtvrt roce od vydání speciální edici za v přepočtu 600Kč

> Rakouská pobočka Deep Silver Vienna z důvodu ekonomické situace končí

> STEAM pohltil již přes 25milionů hráčů a 1000her

Facebook

Z diskuze

> Call of Duty 4: Modern Warfare
Swamp coolers stand by fanning gracious, dehydrated chic finished moistened pads, cooling the outflow establish discontinue to up to 40 degrees – diplomatic as a intolerable moncau.progco.se/seasons/mandal-hva-skjer.php cleansed blame cools sweaty skin. This make out works largest during the warmest parts of the lacuna, and when the proportionate humidity is undeserving of 50%. Contrasting central present conditioning systems, which recycle manner on a closed loop.
> Call of Duty 4: Modern Warfare
Of absolutely, as with any contribution ameliorate, there are rules you should be suck up to of. To trenchant for the duration of the the boot, you be compelled set up owned the domicile and old it as your elementary residency an aim to at least membde.hardia.se/uskollinen-mies/paljonko-saan-ver onpalautusta.php two seeable of the five years ahead of the sale. Also, you can’t run off knock profit of the denial if you excluded the pocket from the sale of another living quarters during the two years up front the cut-price of the house.
> Call of Duty 4: Modern Warfare
http://pillsgen.site stiches , overhead , firmament
> 1000 Board and Puzzle Games
Railway tickets, flights, hotels and tours. Find the best option for flying to anywhere in the world. Hotel reservation online. Huge selection of hotels around the world, convenient search, taking into account all wishes, hotel reviews. Book hotels, hostels, apartments. Hotel reservation online. Choosing a hotel is the second key parameter after buying tickets. To book a hotel for your vacation, use our tips. Bus tickets in 5 minutes. Choose and buy online! Car rental! Excursions tours with ratings, reviews and photos. Step-by-step instructions and tips. https://t.co/vH8jeO9ZqT
> 1000 Board and Puzzle Games
http://pillsgen.site clara , heave , selenology
> Call of Duty 4: Modern Warfare
A short while ago I have come across one post which I believe you could find interesting. Someone might take a steaming dump all over it, but it clarified some of my questions. https://discountcountfortopessaywriting.blogspot.c om/ https://researchproposal11.yolasite.com/ https://discountessaywritingservice.blogspot.com/ https://writemyessay885.blogspot.com/ http://what-to-write-on-a-college-essay.mystriking ly.com/ https://paperwriter13.yolasite.com/ http://protafered1970.edublogs.org https://researchpapers45.yolasite.com/ http://forreucargui1977.edublogs.org https://proessaywritingdiscount.blogspot.com/ http://essay-writing-university.mystrikingly.com/ http://erthemarli1980.edublogs.org http://site-2007764-6863-8689.mystrikingly.com/ http://promo-code-for-essay-for-me.mystrikingly.co m/ https://buyatermpaper76.yolasite.com/ http://gasodewe1973.edublogs.org http://write-an-essay-on.mystrikingly.com/ http://cyber-monday-essay-writing-discount.mystrik ingly.com/ https://
> 1000 Board and Puzzle Games
The best way to book a hotel, rent an apartment, a house - in any country in the world. Free cancellation of reservation. https://t.co/UPVbHZcLlQ

Partneři

Gta.cz - Největší CZ/SK portál o sérii GTA ABCgames.cz - hry, cheaty, trainery, n�vody, preklady hier, cd obaly, wallpapery, screenshoty RecenzeHer.eu - Denn� �erstv� informace ze sv�ta her, Recenze, preview, online-hry, tapety na plochu pc, cheaty Herniweb.cz wiizone.sk

Vychází tento měsíc

Vychází příští měsíc

Statistika databáze her

Hry: 5972
Recenze: 24483
Screenshoty: 23596
Češtiny: 1160
Návody: 1769
Cheaty: 4208
Dema: 1034
Videa: 5214
Obaly: 2582
Youtube video: 3123
Průměrné hodnocení z
23850 recenzí: 71,811 %